Location: Sears
(37.7625°N, 100.1060°W)
Time: 06:44:36
(UTC+00:00)

ISS - Visible Passes

Search period start: 30 July 2021 00:00
Search period end: 09 August 2021 00:00
Orbit: 419 x 421 km, 51.6° (Epoch: 29 July)

Date Brightness Start Highest point End Pass type
(mag) Time Alt. Az. Time Alt. Az. Time Alt. Az.
30 Jul -2.3 03:23:36 10° NNW 03:26:37 29° NNE 03:27:45 23° ENE visible
30 Jul -0.6 05:00:26 10° WNW 05:00:43 12° WNW 05:00:43 12° WNW visible
31 Jul -1.7 02:36:32 10° NNW 02:39:09 20° NNE 02:41:45 10° ENE visible
31 Jul -2.3 04:12:51 10° WNW 04:15:06 35° W 04:15:06 35° W visible
01 Aug -3.8 03:25:29 10° NW 03:28:52 84° NE 03:29:32 54° ESE visible
02 Aug -3.2 02:38:13 10° NW 02:41:31 47° NE 02:44:02 15° ESE visible
02 Aug -1.1 04:15:53 10° W 04:17:00 14° WSW 04:17:00 14° WSW visible
03 Aug -2.3 03:27:55 10° WNW 03:30:51 28° SW 03:31:33 25° SSW visible
04 Aug -3.2 02:40:19 10° WNW 02:43:36 51° SW 02:46:11 15° SSE visible
06 Aug -1.2 02:43:19 10° W 02:45:26 16° SW 02:47:32 10° SSW visible
